Weather History for Park Rapids, MN

Change the Weather History Date:

Saturday, May 30, 2009

  Actual Average Record
Temperature  
Mean Temperature 50 °F -  
Max Temperature 63 °F 72 °F 90 °F (1986)
Min Temperature 37 °F 46 °F 33 °F (2012)
Degree Days  
Heating Degree Days 15    
Moisture  
Dew Point 30 °F    
Average Humidity 44    
Maximum Humidity 86    
Minimum Humidity 22    
Precipitation  
Precipitation 0.00 in - - ()
Sea Level Pressure  
Sea Level Pressure 29.93 in    
Wind  
Wind Speed 12 mph (NNW)    
Max Wind Speed 24 mph    
Max Gust Speed 37 mph    
Visibility 10 miles    
Events      
Averages and records for this station are not official NWS values.
T = Trace of Precipitation, MM = Missing Value Source: NWS Daily Summary

Daily Weather History Graph

Daily Weather History Graph

Search for Another Location

Airport:

Trip Planner

Search our weather history database for the weather conditions in past years. The results will help you decide how hot, cold, wet, or windy it might be!

Date:

Astronomy

May. 30, 2009 Rise Set
Actual Time 5:30 AM CDT 9:05 PM CDT
Civil Twilight 4:52 AM CDT 9:43 PM CDT
Nautical Twilight 4:01 AM CDT 10:35 PM CDT
Astronomical Twilight 2:53 AM CDT 11:44 PM CDT
Moon 12:36 PM CDT (5/30) 1:28 AM CDT (5/30)
Length of Visible Light 16h 51m
Length of Day
15h 35m
Waxing Crescent, 45% of the Moon is Illuminated
May 30
Waxing Crescent
May 30
First Quarter
Jun 7
Full
Jun 15
Last Quarter
Jun 22
New

Hourly Weather History & Observations

Time (CDT) Temp. Windchill Dew Point Humidity Pressure Visibility Wind Dir Wind Speed Gust Speed Precip Events Conditions
12:53 AM 51.1 °F - 46.9 °F 86% 29.78 in 10.0 mi West 9.2 mph - N/A   Clear
1:53 AM 53.1 °F - 43.0 °F 69% 29.81 in 10.0 mi North 10.4 mph - N/A   Clear
2:53 AM 54.0 °F - 37.0 °F 53% 29.84 in 10.0 mi NNE 13.8 mph 27.6 mph N/A   Clear
3:53 AM 51.1 °F - 37.9 °F 61% 29.86 in 10.0 mi North 8.1 mph - N/A   Clear
4:53 AM 43.0 °F 38.8 °F 35.1 °F 74% 29.89 in 10.0 mi NNW 6.9 mph - N/A   Clear
5:53 AM 37.9 °F 32.7 °F 34.0 °F 86% 29.93 in 10.0 mi NNW 6.9 mph - N/A   Clear
6:53 AM 46.0 °F 43.1 °F 37.0 °F 71% 29.94 in 10.0 mi NNW 5.8 mph - N/A   Clear
7:53 AM 51.1 °F - 30.0 °F 44% 29.94 in 10.0 mi North 12.7 mph 18.4 mph N/A   Clear
8:53 AM 54.0 °F - 28.9 °F 38% 29.96 in 10.0 mi North 12.7 mph 20.7 mph N/A   Clear
9:53 AM 55.9 °F - 28.0 °F 34% 29.96 in 10.0 mi North 15.0 mph 25.3 mph N/A   Clear
10:53 AM 57.9 °F - 26.1 °F 30% 29.96 in 10.0 mi North 19.6 mph 29.9 mph N/A   Clear
11:53 AM 60.1 °F - 25.0 °F 26% 29.96 in 10.0 mi NNW 24.2 mph 36.8 mph N/A   Clear
12:53 PM 63.0 °F - 23.0 °F 22% 29.96 in 10.0 mi North 21.9 mph 32.2 mph N/A   Clear
1:53 PM 62.1 °F - 23.0 °F 22% 29.95 in 10.0 mi North 24.2 mph 33.4 mph N/A   Clear
2:53 PM 61.0 °F - 21.9 °F 22% 29.95 in 10.0 mi North 23.0 mph 32.2 mph N/A   Clear
3:53 PM 62.1 °F - 25.0 °F 24% 29.95 in 10.0 mi North 20.7 mph 27.6 mph N/A   Partly Cloudy
4:53 PM 63.0 °F - 25.0 °F 24% 29.94 in 10.0 mi NNW 21.9 mph 27.6 mph N/A   Clear
5:53 PM 62.1 °F - 25.0 °F 24% 29.95 in 10.0 mi NNW 18.4 mph 25.3 mph N/A   Clear
6:53 PM 61.0 °F - 23.0 °F 23% 29.95 in 10.0 mi North 12.7 mph - N/A   Clear
7:53 PM 57.9 °F - 25.0 °F 28% 29.96 in 10.0 mi NNW 15.0 mph - N/A   Clear
8:53 PM 51.1 °F - 28.0 °F 41% 29.96 in 10.0 mi North 5.8 mph - N/A   Clear
9:53 PM 52.0 °F - 28.0 °F 40% 29.96 in 10.0 mi NNE 4.6 mph - N/A   Clear
10:53 PM 46.9 °F - 30.0 °F 52% 29.96 in 10.0 mi Calm Calm - N/A   Clear
11:53 PM 39.9 °F - 30.9 °F 70% 29.96 in 10.0 mi Calm Calm - N/A   Clear